EGLCEGGW

Guest
Details From EGLC - London City
To EGGW - London Luton
Flight Number -
Tags generated
Created
Modified
Stats Distance 28 nm / 52 km
Max Altitude 2,600 ft / 792 m
Waypoints 3
Social Downloads 0
Likes 0
Share VATSIM

Download

Looking for another format? Having issues loading an existing format? Contact us
Advertisement - Login to hide

Notes

Basic altitude profile: - Ascent Rate: 2500ft/min - Ascent Speed: 250kts - Cruise Altitude: 35000ft - Cruise Speed: 420kts - Descent Rate: 1500ft/min - Descent Speed: 250kts Options: - Use NATs: yes - Use PACOTS: no - Use low airways: yes - Use high airways: no

Route

EGLC BPK EGGW

ID Type Via Altitude Latitude Longitude Leg Dist Tot Dist Heading (true) Name
O EGLC APT - 0 ft / 0 m 51.50523˚ 0.05518˚ - 0 nm - London City
BPK VOR - 2,600 ft / 792 m 51.74972˚ -0.10667˚ 15 nm 15 nm 338° / 338° BROOKMANS PARK VOR-DME
O EGGW APT - 0 ft / 0 m 51.87463˚ -0.36845˚ 12 nm 28 nm 308° / 308° London Luton

Altitude Profile

Advertisement - Login to hide

EGLC

Details ICAO EGLC (LCY)
Name London City
Region United Kingdom
Timezone Europe/London (UTC+1.0)
Stats Elevation 19 ft / 6 m (AMSL)
Location 51.505231° 0.055175°
Runways 1
Magnetic Variation 0.334° W

METAR

EGLC 191720Z AUTO 10011KT 9999 NCD 25/12 Q1022

Decode

TAF

Not found

Departure Runways

ID Width Length Bearing (true) Bearing (mag) Surface Threshold Offset Overrun Length
09 98 ft / 30 m 4,931 ft / 1,503 m 92.89° 93.22° Concrete 322 ft / 98 m 164 ft / 50 m
27 98 ft / 30 m 4,931 ft / 1,503 m 272.91° 273.24° Concrete 243 ft / 74 m 279 ft / 85 m

EGGW

Details ICAO EGGW (LTN)
Name London Luton
Region United Kingdom
Timezone Europe/London (UTC+1.0)
Stats Elevation 526 ft / 160 m (AMSL)
Location 51.874629° -0.368450°
Runways 1
Magnetic Variation 0.522° W

METAR

EGGW 191720Z AUTO 32006KT 260V350 9999 NCD 25/11 Q1022

Decode

TAF

TAF EGGW 191050Z 1912/2012 VRB05KT CAVOK BECMG 1920/1923 9000 PROB30 TEMPO 2004/2008 4000 BR BKN004 BECMG 2008/2011 CAVOK

Decode

Destination Runways

ID Width Length Bearing (true) Bearing (mag) Surface Threshold Offset Overrun Length
08 151 ft / 46 m 7,066 ft / 2,154 m 74.35° 74.87° Asphalt 0 ft / 0 m 200 ft / 61 m
26 151 ft / 46 m 7,066 ft / 2,154 m 254.38° 254.90° Asphalt 272 ft / 83 m 0 ft / 0 m

Approach Navaids

Runway Type Ident Frequency Range Bearing (true) Bearing (mag) Slope Elevation
08 Localiser ILTN 109.15 MHz 18 nm / 33 km 74.37° 74.89° - 526 ft / 160 m (AMSL)
08 Glidescope ILTN 109.15 MHz 10 nm / 19 km 74.36° 74.88° 3.00° 526 ft / 160 m (AMSL)
08 DME ILTN 109.15 MHz 18 nm / 33 km - - - 549 ft / 167 m (AMSL)
26 Localiser ILJ 109.15 MHz 18 nm / 33 km 254.35° 254.87° - 526 ft / 160 m (AMSL)
26 Glidescope ILJ 109.15 MHz 10 nm / 19 km 254.36° 254.88° 3.00° 526 ft / 160 m (AMSL)
26 DME ILJ 109.15 MHz 18 nm / 33 km - - - 549 ft / 167 m (AMSL)

Popular Alternatives